Weather in Daman

India     20°25′22″N   72°51′03″E
temp.,
°C
wind,
m/s
gust,
m/s
humid.,
%
clouds,
%
prec.,
mm/h
press.,
hPa
HPBL,
m
6 may, thu
thu623:30+30wsw67740 0.0 1007377
02:30+30wsw55710 0.0 1006369
05:30+30sw43700 0.0 1007417
08:30+30sw33703 0.0 1009409
11:30+30w43703 0.0 1009290
14:30+31w44616 0.0 1007281
17:30+31wsw67690 0.0 1005196
20:30+30wsw78771 0.0 1007396
7 may, fri
fri723:30+30sw77720 0.0 1009667
02:30+30wsw66672 0.0 1008613
05:30+30sw44674 0.0 1009549
08:30+30wsw33663 0.0 1011534
11:30+29w43670 0.0 1010340
14:30+30wsw55655 0.0 1008292
17:30+30wsw67700 0.0 1007293
20:30+30w88750 0.0 1008360
8 may, sat
sat823:30+30wsw66700 0.0 1009617
02:30+30wsw55680 0.0 1008646
05:30+29wsw44680 0.0 1009623
08:30+29wsw32680 0.0 1010600
11:30+29w44700 0.0 1010371
14:30+30wsw55700 0.0 1007342
17:30+30wsw77720 0.0 1005314
20:30+30wsw77740 0.0 1007451
9 may, sun
sun923:30+30wsw77725 0.0 1008620
02:30+29wsw45700 0.0 1007645
05:30+29w44702 0.0 1007599
08:30+30wsw22680 0.0 1009399
11:30+30w44700 0.0 1009322
14:30+30w66690 0.0 1006373
17:30+30wsw77740 0.0 1005406
20:30+30wsw89730 0.0 1006464
10 may, mon
mon1023:30+30wsw67720 0.0 1007651
02:30+29w55731 0.0 1006820
05:30+29wsw55720 0.0 1007710
08:30+29w44700 0.0 1009778
11:30+29wsw54700 0.0 1009590
14:30+29wsw66690 0.0 1006613
17:30+30wsw88710 0.0 1005617
20:30+30sw99720 0.0 1006712